Skip Page Navigation
NASA JPL Caltech
NASA Logo - Jet Propulsion Laboratory + View the NASA Portal
+ Center for Near-Earth Object Studies
JPL Home Earth Solar System Stars & Galaxies Technology
JPL Solar System Dynamics
BODIES ORBITS EPHEMERIDES TOOLS PHYSICAL DATA DISCOVERY FAQ SITE MAP
IMPORTANT: The SSD Announcement email list is now available. Major changes are coming in the near future, including possible hostname and/or URL changes. To be notified of such changes, subscribe to this email list.

Please visit this page for more details.


JPL Small-Body Database Browser
Search: [ help ]  
97627 (2000 EB128)
Classification: Main-belt Asteroid          SPK-ID: 2097627
Ephemeris | Orbit Diagram | Orbital Elements | Mission Design | Physical Parameters | Discovery Circumstances | Close-Approach Data ]

[ show orbit diagram ]
Orbital Elements at Epoch 2459000.5 (2020-May-31.0) TDB
Reference: JPL 18 (heliocentric ecliptic J2000)
 Element Value Uncertainty (1-sigma)   Units 
e .102967769340779 7.4709e-08  
a 2.893299369288497 2.2212e-08 au
q 2.595382787197777 2.2303e-07 au
i 27.80549742348109 1.0029e-05 deg
node 1.603127574931322 8.1467e-06 deg
peri 146.5703451555795 3.2677e-05 deg
M 59.55779530473863 3.1187e-05 deg
tp 2458703.111207564834
(2019-Aug-07.61120756)
0.00015538 TDB
period 1797.581067748853
4.92
2.0701e-05
5.668e-08
d
yr
n .2002691319233993 2.3063e-09 deg/d
Q 3.191215951379216 2.45e-08 au
  Orbit Determination Parameters
   # obs. used (total)      782  
   data-arc span      7304 days (20.00 yr)  
   first obs. used      2000-02-04  
   last obs. used      2020-02-03  
   planetary ephem.      DE431  
   SB-pert. ephem.      SB431-N16  
   condition code      0  
   norm. resid. RMS      .54504  
   source      ORB  
   producer      Otto Matic  
   solution date      2020-Feb-24 00:20:23  

Additional Information
 Earth MOID = 1.62598 au 
 Jupiter MOID = 1.8165 au 
 T_jup = 3.111 
[ show covariance matrix ]

Ephemeris | Orbit Diagram | Orbital Elements | Mission Design | Physical Parameters | Discovery Circumstances | Close-Approach Data ]

Physical Parameter Table
Parameter Symbol Value Units Sigma Reference Notes
absolute magnitude H 14.5   n/a MPO432508  
diameter diameter 8.406 km 0.118 urn:nasa:pds:neowise_diameters_albedos::2.0[mainbelt] (http://adsabs.harvard.edu/abs/2011ApJ...741...68M)  
geometric albedo albedo 0.036   0.006 urn:nasa:pds:neowise_diameters_albedos::2.0[mainbelt] (http://adsabs.harvard.edu/abs/2011ApJ...741...68M)  

97627 (2000 EB128)          Discovered 2000-Mar-11 by LONEOS at Anderson Mesa
Reference: 20050224/Numbers.arcLast Updated: 2005-02-28

[ hide close-approach data ]
Close-Approach Data   ...sorted by Date/Time (TDB)
Date/Time (TDB) Time Uncertainty
(days_HH:MM)
Body Nominal Distance (au) Minimum Distance (au) Maximum Distance (au) V-relative (km/s) V-infinity (km/s) JD (TDB) Time Uncertainty (minutes) Semi-major axis (km) Semi-minor axis (km) range-LOV angle (deg) N-sigma BP Orbit Ref. Reference Modified
1904-Jul-06 20:56 00:03 Jupiter 1.96413053364854 1.9641277541842 1.96413331312718 7.52418853923215 7.4666540104001 2416668.372450715 2.97759349696017 308.934008218869 38.0930997229047 -64.1761968675722 2390640.43090121 T 18 CATAB v2.0f-lin.ifort 2020-Feb-24 00:20:26 2020-Feb-24 00:20
1963-Jul-02 22:46 00:01 Jupiter 1.84393314503361 1.84393224890358 1.8439340411649 7.56277465668401 7.50178963189753 2438213.448490006 1.30451120664765 128.751377172181 34.5005017138601 -76.9305834359554 2601175.72420105 T 18 CATAB v2.0f-lin.ifort 2020-Feb-24 00:20:26 2020-Feb-24 00:20
2022-Jul-04 10:21 < 00:01 Jupiter 1.81088194668755 1.81088120528381 1.8108826880914 7.55380330163173 7.49162623624779 2459764.931465792 0.290849680168082 49.8192266653475 33.829176440245 -67.9510710411219 2562950.26232023 T 18 CATAB v2.0f-lin.ifort 2020-Feb-24 00:20:26 2020-Feb-24 00:20
2081-Jul-06 00:24 00:02 Jupiter 1.86542616430718 1.86542496841863 1.86542736019786 7.50796839020127 7.4472452439527 2481316.517008310 1.81582731461686 146.117540323292 39.1884753265845 71.4637191019857 2402071.96034786 T 18 CATAB v2.0f-lin.ifort 2020-Feb-24 00:20:26 2020-Feb-24 00:20

Alternate Designations
 2000 EB128 = 2002 RN123 
Ephemeris | Orbit Diagram | Orbital Elements | Mission Design | Physical Parameters | Discovery Circumstances | Close-Approach Data ]
ABOUT SSD CREDITS/AWARDS PRIVACY/COPYRIGHT GLOSSARY LINKS
FirstGov 2020-Apr-01 00:15 UT
(server date/time)  
NASA Home Page
Site Manager:   Ryan S. Park
Webmaster  Alan B. Chamberlin